IONOSFERA-M 2

Last updated on Sun Apr 12 2026 00:02:36 GMT+0000 (Coordinated Universal Time)

1 61736U 24199B 26101.55895875 .00000007 00000+0 22960-4 0 9999 2 61736 98.7268 335.3143 0001613 115.5779 244.5566 14.22744841121354
UTC large
Height (km)
Speed (km/s)
/
Latitude / Longitude
Inclination (degrees)
Orbital Period (minutes)
Azimuth
Elevation
Range (km)
Doppler Factor

Next 0 passes for location: London (51.5072 / 0.1276)

Sorry there are no passes over London.
IONOSFERA-M 2